SCP
0 0 0 0 0 0 0 0 0 0 0 0 0 0 0 0 0 0 0 0 0 0 0 0 1 1 1 0 0 0 0 0 0 0 0 0 0 0 0 0 0 0 0
0 0 0 0 0 0 0 0 0 0 0 0 0 0 0 0 0 0 0 0 0 0 0 0 1 1 0 1 1 1 0 0 1 1 0 0 0 0 0 0 0 0 0
0 0 0 0 0 0 0 0 0 0 0 0 0 0 0 0 0 0 0 0 0 0 0 0 0 0 1 1 1 1 0 0 0 0 0 0 0 0 0 0 0 0 0
0 0 0 0 0 0 0 0 0 0 0 0 0 0 0 0 0 0 0 0 0 0 0 -0 0 0 -0 0 0 0 0 0 0 0 0 0 0 0 0 0 0 0 0
0 0 0 0 0 0 0 0 0 0 0 0 0 0 0 0 0 0 0 0 0 0 0 0 0 0 0 0 0 0 0 0 0 0 0 0 0 0 0 0 0 0 0
0 0 0 0 0 1 1 1 1 0 0 0 1 0 0 0 0 0 0 0 0 0 0 0 0 0 0 0 0 0 0 1 0 1 1 0 0 0 0 0 0 0 0
1 0 0 1 1 1 1 1 1 0 0 0 0 0 0 0 0 0 0 0 0 0 0 0 0 0 0 0 0 0 0 0 0 0 1 0 0 0 0 0 0 0 0
2 1 1 1 1 1 1 1 1 1 1 0 0 0 0 0 0 0 0 0 0 0 0 0 0 0 0 0 0 0 0 0 0 1 1 0 0 0 0 0 0 0 0
1 2 2 1 1 1 1 1 0 0 1 0 0 0 0 0 0 -0 0 0 0 0 0 0 0 0 0 0 0 0 0 0 0 0 0 0 0 0 0 0 0 0 0
0 0 0 0 0 0 0 0 0 0 1 0 0 0 0 0 0 0 0 0 0 0 0 0 0 0 0 0 0 0 0 0 0 0 1 0 0 0 0 0 0 -0 0
0 0 0 0 0 0 0 0 0 0 0 0 0 0 0 0 0 0 0 0 0 0 0 0 0 0 0 0 0 0 0 0 0 0 0 0 0 0 0 0 0 0 0
0 0 0 0 0 0 0 0 0 0 0 0 0 0 0 0 0 0 0 0 0 0 0 0 0 0 0 0 0 0 0 0 0 0 0 0 0 0 0 0 0 0 0
0 0 0 0 0 0 0 0 0 0 0 0 0 0 0 0 0 0 0 0 0 0 0 0 0 0 0 0 0 0 0 0 0 0 0 0 0 0 0 0 0 0 0
0 0 0 0 0 0 0 0 0 0 0 0 0 0 0 0 0 0 0 0 0 0 0 0 0 0 0 0 0 0 0 0 0 0 0 0 0 0 0 0 0 0 0
0 0 0 0 0 0 0 0 0 0 0 0 0 0 0 0 0 0 0 0 0 0 0 0 0 0 0 0 0 0 0 0 0 0 0 0 0 0 0 0 0 0 0
-0 0 0 0 0 0 0 0 0 0 0 0 0 0 0 0 0 0 0 0 0 0 0 0 0 0 0 0 0 0 0 0 0 0 0 0 0 0 0 0 0 0 0
0 0 0 0 0 0 0 0 0 0 0 0 0 0 0 0 0 0 0 0 0 0 0 0 0 0 0 0 0 0 0 0 0 0 0 0 0 0 0 0 0 0 0
-0 -0 0 0 0 0 0 0 0 0 0 0 0 0 0 0 0 0 0 0 0 0 0 0 0 0 0 0 0 0 0 0 0 0 0 0 0 0 0 0 0 0 0
-0 0 0 0 0 0 0 0 0 0 0 0 0 0 0 0 0 0 0 0 0 0 0 0 0 0 0 0 0 0 0 0 0 0 0 0 0 0 0 0 0 0 0
0 0 0 0 0 0 0 0 0 0 0 0 0 0 0 0 0 0 0 0 0 0 0 0 0 0 0 0 0 0 0 0 0 0 0 0 0 0 0 0 0 -0 -0
0 0 0 0 0 0 0 0 0 0 0 0 0 0 0 0 0 0 0 0 0 0 0 0 0 0 0 0 0 0 0 0 0 0 0 0 0 0 0 0 -0 -0 -0
0 0 0 0 0 0 0 0 0 0 0 0 0 0 0 0 0 0 0 0 0 0 0 0 0 0 0 0 0 0 0 0 0 0 0 0 0 0 0 0 -0 -0 -0
0 0 0 0 0 0 0 0 0 0 0 0 0 0 0 0 0 0 0 0 0 0 0 0 0 0 0 0 0 0 0 0 0 0 0 0 0 0 0 0 -0 -0 -0
0 0 0 0 0 0 0 0 0 0 0 0 0 0 0 0 0 0 0 0 0 0 0 0 0 0 0 0 0 0 0 0 0 0 0 0 0 0 0 0 0 -0 0
0 0 0 0 0 0 0 0 0 0 0 0 0 0 0 0 0 0 0 0 0 0 0 0 0 0 0 0 0 0 0 0 0 0 0 0 0 0 0 0 0 0 0
0 0 0 0 0 0 0 0 0 0 0 0 0 0 0 0 0 0 0 0 0 0 0 0 0 0 0 0 0 0 0 0 0 0 0 0 0 0 0 0 0 0 0
Wind_Speed_500mb
34 36 35 35 32 27 27 23 19 15 17 17 21 21 17 10 8 12 14 13 12 9 11 17 21 23 25 25 27 26 25 25 25 26 29 30 30 28 25 26 25 25 20
36 39 39 38 37 33 26 27 25 27 29 33 29 29 17 14 14 15 16 21 21 23 18 15 19 20 18 24 23 25 25 23 25 27 29 30 31 32 28 28 27 27 28
28 28 31 35 34 33 33 35 34 35 35 31 28 27 24 21 24 22 27 29 27 26 26 27 23 26 22 23 22 23 28 28 26 28 28 29 32 35 30 32 29 29 30
33 30 31 32 28 33 36 38 40 41 46 41 36 31 34 30 27 29 22 20 21 24 21 15 19 20 20 24 25 24 25 28 27 28 27 30 35 36 35 33 33 30 32
43 44 44 42 37 44 44 44 49 50 48 43 43 36 32 26 31 32 32 28 31 26 23 23 24 23 26 25 29 29 30 27 26 28 30 33 36 37 37 34 36 33 29
49 48 51 56 55 54 48 48 52 52 55 50 48 42 38 29 36 42 42 39 37 34 29 26 24 28 26 30 29 28 34 37 34 27 33 33 35 41 40 38 36 40 34
57 56 57 57 55 56 55 49 56 63 63 59 48 47 51 46 56 44 43 38 41 36 25 21 22 27 26 28 32 32 40 35 46 33 30 42 41 37 39 43 39 39 43
59 60 64 58 56 53 57 56 57 60 58 64 52 43 35 39 36 30 39 40 35 32 25 28 30 29 26 26 29 32 38 45 41 30 38 38 42 45 42 41 39 39 40
57 58 59 55 54 51 59 63 59 58 63 62 48 39 17 13 30 31 32 38 43 42 37 37 31 28 27 29 32 38 39 34 36 34 36 38 39 40 37 38 42 38 37
42 45 50 61 56 55 59 65 60 59 63 65 55 46 44 41 28 55 49 35 41 52 43 38 31 32 30 35 37 41 45 47 42 37 40 43 41 39 39 43 45 45 47
42 39 43 49 56 60 62 66 62 55 62 57 61 49 54 50 51 56 68 47 52 45 39 34 40 42 38 39 36 31 36 40 39 36 33 36 36 41 40 37 41 45 48
26 27 33 39 44 49 52 52 55 53 55 62 61 67 57 61 57 61 60 55 54 54 53 43 39 35 36 39 39 34 30 39 43 42 34 31 33 28 33 40 43 40 43
20 20 23 21 27 36 38 42 42 35 37 45 47 64 65 65 64 62 57 48 49 54 56 49 44 41 37 33 33 31 40 45 50 46 36 32 29 30 34 39 38 36 38
29 28 25 24 27 27 28 27 25 26 28 29 32 35 38 39 41 49 45 46 50 50 53 48 55 48 43 36 36 39 45 49 47 49 44 44 46 37 36 34 34 34 32
43 41 39 36 33 34 36 35 35 36 37 39 42 43 47 43 46 45 45 45 46 59 66 67 58 57 51 45 40 43 43 47 52 50 47 49 52 30 31 37 40 42 38
52 54 51 46 43 41 43 43 42 43 43 46 48 49 49 52 56 56 55 58 62 73 74 70 66 63 57 56 53 49 49 46 43 47 57 53 45 42 43 45 41 44 46
59 60 56 54 52 51 49 49 49 50 52 55 56 57 58 57 56 55 57 60 60 60 67 79 72 61 61 62 64 61 55 49 56 68 70 68 46 42 46 45 42 42 47
63 63 59 56 54 53 54 56 57 57 58 58 56 57 60 62 63 62 62 60 59 59 62 75 75 61 61 62 73 66 60 71 70 62 57 53 49 42 50 50 39 33 41
57 59 60 63 61 58 57 55 56 59 60 60 61 63 64 64 63 61 60 62 61 59 57 61 70 66 64 61 66 69 69 69 66 64 54 60 65 58 58 55 46 42 45
59 61 63 64 61 64 66 70 73 76 76 75 73 71 70 71 72 75 78 77 74 71 67 65 66 63 59 55 58 68 70 68 68 63 63 71 70 69 65 55 59 55 50
55 58 63 69 73 78 81 84 88 89 86 83 82 83 85 86 86 84 83 84 82 82 81 81 80 77 76 70 65 65 65 66 65 59 63 69 67 65 66 63 64 69 69
65 73 82 88 93 93 91 87 79 74 71 70 70 68 67 69 73 76 81 87 91 92 90 87 88 85 90 86 83 81 72 61 65 64 64 60 56 59 61 70 67 69 77
79 88 94 97 95 85 71 61 54 53 53 55 57 60 61 59 56 54 54 53 52 57 67 75 82 86 88 89 82 80 83 80 80 78 63 66 56 61 62 66 68 68 76
95 98 94 84 72 60 50 52 50 51 54 53 54 57 57 54 49 47 41 36 43 47 52 55 57 58 57 55 57 60 63 73 77 81 73 74 68 68 69 72 71 65 67
90 83 73 64 57 54 45 47 53 54 55 55 53 54 54 52 48 44 38 43 49 49 45 44 43 50 58 64 69 61 70 60 56 71 78 73 75 69 69 67 58 60 55
71 64 56 49 47 46 48 50 50 51 54 53 49 46 42 45 46 43 37 38 40 40 39 39 40 41 43 48 45 62 77 73 69 48 50 64 70 58 58 52 43 26 36
Wind_Direction_500mb
256 254 254 254 255 254 251 248 266 266 270 273 257 251 252 262 274 302 304 298 299 310 316 307 298 297 301 305 302 312 305 299 298 294 294 289 289 281 277 279 280 280 277
259 260 261 261 260 257 254 253 265 265 269 271 257 253 245 261 262 290 293 293 292 297 294 288 287 304 295 303 299 299 302 303 292 284 283 287 285 284 281 277 277 277 276
256 263 272 269 270 266 261 257 259 265 273 285 266 259 266 305 293 295 290 292 285 302 290 282 290 285 281 300 288 296 301 304 306 296 284 280 282 279 275 281 276 273 272
253 256 266 273 287 280 273 266 266 267 268 272 275 282 278 281 278 291 283 288 279 296 293 292 285 277 278 288 289 296 302 305 315 316 297 284 279 282 276 271 276 276 275
259 262 262 266 274 267 267 274 276 274 272 263 267 269 270 279 292 292 288 282 281 274 285 278 284 295 294 285 288 292 295 289 294 299 304 289 278 276 275 271 272 269 274
265 267 270 268 264 266 267 276 279 272 272 272 273 268 271 279 282 295 291 277 278 279 275 271 281 286 304 286 289 283 278 269 272 265 289 288 282 272 271 270 267 273 265
276 273 271 273 271 264 265 275 279 275 267 270 273 270 286 266 286 295 296 270 272 276 269 253 273 285 286 286 289 281 278 274 296 263 294 295 282 279 269 263 266 266 273
271 270 266 269 273 275 263 269 281 276 269 266 266 281 272 266 276 304 303 267 269 258 270 275 277 274 281 283 295 302 292 290 293 295 288 290 285 281 278 268 263 266 263
263 267 269 269 270 268 265 273 280 272 272 272 261 263 264 254 299 305 304 272 258 262 274 277 279 283 293 294 296 301 305 305 298 275 287 280 276 272 281 275 260 260 267
268 268 267 266 270 269 267 273 281 268 267 266 275 272 256 261 261 278 273 264 272 268 269 273 279 289 287 283 283 286 286 292 295 281 278 276 278 270 288 280 274 270 267
268 269 266 265 267 269 267 278 282 275 273 270 270 270 276 263 252 247 264 263 271 266 256 259 274 280 281 286 284 276 283 285 292 302 295 280 283 280 285 281 276 275 268
299 283 273 272 274 277 279 281 283 280 273 268 269 253 262 258 256 251 252 260 268 267 269 276 277 281 291 292 290 291 269 277 289 302 305 289 288 294 285 275 280 276 266
9 7 2 345 294 285 282 282 284 288 280 275 271 266 271 267 264 263 260 261 269 269 272 278 284 289 290 284 279 274 278 284 292 296 298 304 309 290 276 280 284 280 269
348 339 334 329 326 323 313 305 293 278 272 273 272 275 279 281 279 278 277 270 274 272 268 270 267 279 286 289 272 277 281 282 290 293 292 302 312 290 284 283 281 280 278
334 331 322 315 309 307 305 299 292 284 283 283 271 269 271 270 270 269 267 266 270 273 279 278 268 272 274 281 279 284 275 279 283 273 286 300 310 297 298 295 284 274 275
336 328 322 318 314 311 307 304 299 294 287 282 284 282 280 277 273 269 267 267 263 261 267 270 273 277 277 276 279 280 282 281 257 267 287 293 292 300 302 295 287 276 269
333 329 320 316 314 311 307 305 302 298 292 290 287 287 283 282 280 278 275 272 269 269 273 278 280 279 274 273 274 275 276 261 271 279 282 282 275 298 298 293 299 284 276
332 327 323 320 318 316 312 310 309 307 305 302 299 295 292 289 285 282 281 280 278 276 275 274 276 274 274 277 278 276 265 268 275 277 276 265 264 290 301 289 291 302 299
329 329 328 327 321 316 311 308 307 304 301 300 298 296 294 293 290 287 286 284 281 279 276 275 276 277 273 272 271 271 271 272 272 271 266 255 259 278 293 279 275 288 309
322 322 320 319 312 310 306 304 300 297 293 289 285 282 282 281 281 281 282 281 280 279 276 272 272 276 273 266 269 272 272 273 276 272 260 257 261 276 285 274 270 277 291
312 312 311 311 309 307 306 304 300 297 293 289 283 280 277 276 275 275 276 276 274 273 273 274 273 274 272 271 269 272 273 276 275 270 267 263 269 269 268 269 268 275 285
307 310 312 312 311 310 308 304 302 298 296 294 294 293 291 287 282 278 274 270 268 268 269 270 271 271 270 269 269 268 267 268 269 267 267 269 263 262 264 261 267 277 285
309 310 311 311 310 311 310 308 302 301 300 300 300 300 299 296 294 291 287 283 273 265 264 266 267 266 267 266 267 264 263 261 260 262 264 267 265 255 261 265 275 285 288
310 311 313 314 315 317 317 312 306 302 302 301 300 300 300 300 296 295 292 279 278 271 267 265 260 259 257 256 251 250 257 259 258 255 256 258 260 257 269 276 285 287 282
311 314 316 319 319 318 315 312 310 308 307 305 304 301 299 298 299 295 284 277 280 281 277 275 271 268 260 253 246 247 243 250 249 249 250 255 258 264 275 281 281 283 270
316 318 320 324 323 323 322 320 320 321 314 311 308 305 303 303 300 294 282 275 271 276 276 275 277 278 274 273 259 240 240 243 249 250 250 242 252 260 271 277 279 281 260
Wind_Speed_850mb
34 36 35 35 32 27 27 23 19 15 17 17 21 21 17 10 8 12 14 13 12 9 11 17 21 23 25 25 27 26 25 25 25 26 29 30 30 28 25 26 25 25 20
36 39 39 38 37 33 26 27 25 27 29 33 29 29 17 14 14 15 16 21 21 23 18 15 19 20 18 24 23 25 25 23 25 27 29 30 31 32 28 28 27 27 28
28 28 31 35 34 33 33 35 34 35 35 31 28 27 24 21 24 22 27 29 27 26 26 27 23 26 22 23 22 23 28 28 26 28 28 29 32 35 30 32 29 29 30
33 30 31 32 28 33 36 38 40 41 46 41 36 31 34 30 27 29 22 20 21 24 21 15 19 20 20 24 25 24 25 28 27 28 27 30 35 36 35 33 33 30 32
43 44 44 42 37 44 44 44 49 50 48 43 43 36 32 26 31 32 32 28 31 26 23 23 24 23 26 25 29 29 30 27 26 28 30 33 36 37 37 34 36 33 29
49 48 51 56 55 54 48 48 52 52 55 50 48 42 38 29 36 42 42 39 37 34 29 26 24 28 26 30 29 28 34 37 34 27 33 33 35 41 40 38 36 40 34
57 56 57 57 55 56 55 49 56 63 63 59 48 47 51 46 56 44 43 38 41 36 25 21 22 27 26 28 32 32 40 35 46 33 30 42 41 37 39 43 39 39 43
59 60 64 58 56 53 57 56 57 60 58 64 52 43 35 39 36 30 39 40 35 32 25 28 30 29 26 26 29 32 38 45 41 30 38 38 42 45 42 41 39 39 40
57 58 59 55 54 51 59 63 59 58 63 62 48 39 17 13 30 31 32 38 43 42 37 37 31 28 27 29 32 38 39 34 36 34 36 38 39 40 37 38 42 38 37
42 45 50 61 56 55 59 65 60 59 63 65 55 46 44 41 28 55 49 35 41 52 43 38 31 32 30 35 37 41 45 47 42 37 40 43 41 39 39 43 45 45 47
42 39 43 49 56 60 62 66 62 55 62 57 61 49 54 50 51 56 68 47 52 45 39 34 40 42 38 39 36 31 36 40 39 36 33 36 36 41 40 37 41 45 48
26 27 33 39 44 49 52 52 55 53 55 62 61 67 57 61 57 61 60 55 54 54 53 43 39 35 36 39 39 34 30 39 43 42 34 31 33 28 33 40 43 40 43
20 20 23 21 27 36 38 42 42 35 37 45 47 64 65 65 64 62 57 48 49 54 56 49 44 41 37 33 33 31 40 45 50 46 36 32 29 30 34 39 38 36 38
29 28 25 24 27 27 28 27 25 26 28 29 32 35 38 39 41 49 45 46 50 50 53 48 55 48 43 36 36 39 45 49 47 49 44 44 46 37 36 34 34 34 32
43 41 39 36 33 34 36 35 35 36 37 39 42 43 47 43 46 45 45 45 46 59 66 67 58 57 51 45 40 43 43 47 52 50 47 49 52 30 31 37 40 42 38
52 54 51 46 43 41 43 43 42 43 43 46 48 49 49 52 56 56 55 58 62 73 74 70 66 63 57 56 53 49 49 46 43 47 57 53 45 42 43 45 41 44 46
59 60 56 54 52 51 49 49 49 50 52 55 56 57 58 57 56 55 57 60 60 60 67 79 72 61 61 62 64 61 55 49 56 68 70 68 46 42 46 45 42 42 47
63 63 59 56 54 53 54 56 57 57 58 58 56 57 60 62 63 62 62 60 59 59 62 75 75 61 61 62 73 66 60 71 70 62 57 53 49 42 50 50 39 33 41
57 59 60 63 61 58 57 55 56 59 60 60 61 63 64 64 63 61 60 62 61 59 57 61 70 66 64 61 66 69 69 69 66 64 54 60 65 58 58 55 46 42 45
59 61 63 64 61 64 66 70 73 76 76 75 73 71 70 71 72 75 78 77 74 71 67 65 66 63 59 55 58 68 70 68 68 63 63 71 70 69 65 55 59 55 50
55 58 63 69 73 78 81 84 88 89 86 83 82 83 85 86 86 84 83 84 82 82 81 81 80 77 76 70 65 65 65 66 65 59 63 69 67 65 66 63 64 69 69
65 73 82 88 93 93 91 87 79 74 71 70 70 68 67 69 73 76 81 87 91 92 90 87 88 85 90 86 83 81 72 61 65 64 64 60 56 59 61 70 67 69 77
79 88 94 97 95 85 71 61 54 53 53 55 57 60 61 59 56 54 54 53 52 57 67 75 82 86 88 89 82 80 83 80 80 78 63 66 56 61 62 66 68 68 76
95 98 94 84 72 60 50 52 50 51 54 53 54 57 57 54 49 47 41 36 43 47 52 55 57 58 57 55 57 60 63 73 77 81 73 74 68 68 69 72 71 65 67
90 83 73 64 57 54 45 47 53 54 55 55 53 54 54 52 48 44 38 43 49 49 45 44 43 50 58 64 69 61 70 60 56 71 78 73 75 69 69 67 58 60 55
71 64 56 49 47 46 48 50 50 51 54 53 49 46 42 45 46 43 37 38 40 40 39 39 40 41 43 48 45 62 77 73 69 48 50 64 70 58 58 52 43 26 36
Wind_Direction_850mb
256 254 254 254 255 254 251 248 266 266 270 273 257 251 252 262 274 302 304 298 299 310 316 307 298 297 301 305 302 312 305 299 298 294 294 289 289 281 277 279 280 280 277
259 260 261 261 260 257 254 253 265 265 269 271 257 253 245 261 262 290 293 293 292 297 294 288 287 304 295 303 299 299 302 303 292 284 283 287 285 284 281 277 277 277 276
256 263 272 269 270 266 261 257 259 265 273 285 266 259 266 305 293 295 290 292 285 302 290 282 290 285 281 300 288 296 301 304 306 296 284 280 282 279 275 281 276 273 272
253 256 266 273 287 280 273 266 266 267 268 272 275 282 278 281 278 291 283 288 279 296 293 292 285 277 278 288 289 296 302 305 315 316 297 284 279 282 276 271 276 276 275
259 262 262 266 274 267 267 274 276 274 272 263 267 269 270 279 292 292 288 282 281 274 285 278 284 295 294 285 288 292 295 289 294 299 304 289 278 276 275 271 272 269 274
265 267 270 268 264 266 267 276 279 272 272 272 273 268 271 279 282 295 291 277 278 279 275 271 281 286 304 286 289 283 278 269 272 265 289 288 282 272 271 270 267 273 265
276 273 271 273 271 264 265 275 279 275 267 270 273 270 286 266 286 295 296 270 272 276 269 253 273 285 286 286 289 281 278 274 296 263 294 295 282 279 269 263 266 266 273
271 270 266 269 273 275 263 269 281 276 269 266 266 281 272 266 276 304 303 267 269 258 270 275 277 274 281 283 295 302 292 290 293 295 288 290 285 281 278 268 263 266 263
263 267 269 269 270 268 265 273 280 272 272 272 261 263 264 254 299 305 304 272 258 262 274 277 279 283 293 294 296 301 305 305 298 275 287 280 276 272 281 275 260 260 267
268 268 267 266 270 269 267 273 281 268 267 266 275 272 256 261 261 278 273 264 272 268 269 273 279 289 287 283 283 286 286 292 295 281 278 276 278 270 288 280 274 270 267
268 269 266 265 267 269 267 278 282 275 273 270 270 270 276 263 252 247 264 263 271 266 256 259 274 280 281 286 284 276 283 285 292 302 295 280 283 280 285 281 276 275 268
299 283 273 272 274 277 279 281 283 280 273 268 269 253 262 258 256 251 252 260 268 267 269 276 277 281 291 292 290 291 269 277 289 302 305 289 288 294 285 275 280 276 266
9 7 2 345 294 285 282 282 284 288 280 275 271 266 271 267 264 263 260 261 269 269 272 278 284 289 290 284 279 274 278 284 292 296 298 304 309 290 276 280 284 280 269
348 339 334 329 326 323 313 305 293 278 272 273 272 275 279 281 279 278 277 270 274 272 268 270 267 279 286 289 272 277 281 282 290 293 292 302 312 290 284 283 281 280 278
334 331 322 315 309 307 305 299 292 284 283 283 271 269 271 270 270 269 267 266 270 273 279 278 268 272 274 281 279 284 275 279 283 273 286 300 310 297 298 295 284 274 275
336 328 322 318 314 311 307 304 299 294 287 282 284 282 280 277 273 269 267 267 263 261 267 270 273 277 277 276 279 280 282 281 257 267 287 293 292 300 302 295 287 276 269
333 329 320 316 314 311 307 305 302 298 292 290 287 287 283 282 280 278 275 272 269 269 273 278 280 279 274 273 274 275 276 261 271 279 282 282 275 298 298 293 299 284 276
332 327 323 320 318 316 312 310 309 307 305 302 299 295 292 289 285 282 281 280 278 276 275 274 276 274 274 277 278 276 265 268 275 277 276 265 264 290 301 289 291 302 299
329 329 328 327 321 316 311 308 307 304 301 300 298 296 294 293 290 287 286 284 281 279 276 275 276 277 273 272 271 271 271 272 272 271 266 255 259 278 293 279 275 288 309
322 322 320 319 312 310 306 304 300 297 293 289 285 282 282 281 281 281 282 281 280 279 276 272 272 276 273 266 269 272 272 273 276 272 260 257 261 276 285 274 270 277 291
312 312 311 311 309 307 306 304 300 297 293 289 283 280 277 276 275 275 276 276 274 273 273 274 273 274 272 271 269 272 273 276 275 270 267 263 269 269 268 269 268 275 285
307 310 312 312 311 310 308 304 302 298 296 294 294 293 291 287 282 278 274 270 268 268 269 270 271 271 270 269 269 268 267 268 269 267 267 269 263 262 264 261 267 277 285
309 310 311 311 310 311 310 308 302 301 300 300 300 300 299 296 294 291 287 283 273 265 264 266 267 266 267 266 267 264 263 261 260 262 264 267 265 255 261 265 275 285 288
310 311 313 314 315 317 317 312 306 302 302 301 300 300 300 300 296 295 292 279 278 271 267 265 260 259 257 256 251 250 257 259 258 255 256 258 260 257 269 276 285 287 282
311 314 316 319 319 318 315 312 310 308 307 305 304 301 299 298 299 295 284 277 280 281 277 275 271 268 260 253 246 247 243 250 249 249 250 255 258 264 275 281 281 283 270
316 318 320 324 323 323 322 320 320 321 314 311 308 305 303 303 300 294 282 275 271 276 276 275 277 278 274 273 259 240 240 243 249 250 250 242 252 260 271 277 279 281 260